This is the latest recevied weather packets stored in our database for station/object DH9SB-6. If no packets are shown the sender has not sent any weather packets the latest 1 day(s).
| Time | Temp. | Humidity | Pressure | Rain* | Wind** | Luminosity | Snow |
|---|---|---|---|---|---|---|---|
| 1778118776 | 10.56° C | 99% | - | 1.27 mm | - | - | - |
| 1778118152 | 10.56° C | 99% | - | 1.02 mm | - | - | - |
| 1778117574 | 10.56° C | 99% | - | 1.02 mm | - | - | - |
| 1778116950 | 10.56° C | 99% | - | 1.02 mm | - | - | - |
| 1778116375 | 10.56° C | 99% | - | 1.52 mm | - | - | - |
| 1778115174 | 10.56° C | 98% | - | 2.03 mm | - | - | - |
| 1778113976 | 10° C | 98% | - | 3.3 mm | - | - | - |
| 1778113353 | 10° C | 98% | - | 3.81 mm | - | - | - |
| 1778112779 | 10° C | 97% | - | 4.32 mm | - | - | - |
| 1778112151 | 10° C | 97% | - | 4.57 mm | - | - | - |
| 1778109751 | 10.56° C | 96% | - | 4.32 mm | - | - | - |
| 1778109175 | 10.56° C | 96% | - | 4.32 mm | - | - | - |
| 1778105287 | 11.11° C | 96% | - | 2.79 mm | - | - | - |
| 1778103463 | 11.67° C | 96% | - | 3.05 mm | - | - | - |
| 1778102886 | 11.67° C | 96% | - | 2.79 mm | - | - | - |
| 1778099864 | 12.22° C | 95% | - | 3.81 mm | - | - | - |
| 1778098089 | 12.22° C | 94% | - | 3.05 mm | - | - | - |
| 1778096262 | 12.78° C | 91% | - | 1.02 mm | - | - | - |
| 1778095690 | 12.78° C | 90% | - | 1.02 mm | - | - | - |
| 1778095063 | 12.22° C | 93% | - | 0.51 mm | - | - | - |
| 1778093870 | 12.78° C | 90% | - | 0.25 mm | - | - | - |
| 1778093286 | 12.78° C | 90% | - | 0.51 mm | - | - | - |
| 1778089688 | 12.78° C | 89% | - | 0.25 mm | - | - | - |
| 1778089066 | 12.78° C | 89% | - | 0.51 mm | - | - | - |
| 1778088487 | 12.78° C | 89% | - | 0.51 mm | - | - | - |
* Rain latest hour (hover to see other rain measurements)
** Current wind speed in m/s (hover to see current wind gust speed)